sat.trackr.live / text

‹ back to catalog

GALAXY 16 (G-16)

NORAD 29236 · 2006-023A

PAYLOAD ACTIVE UNKNOWN

§ Identity

Operator
Country
US
Launch date
2006-06-18
Launch site
SEAL
Launch vehicle
Mass (kg)
RCS (m²)
251.79

Purposes: comms

External: N2YO · Heavens-Above · Gunter

§ Orbital elements

Epoch: 2026-09-19T21:39:38.598912Z

Period
1,436.10 min
Inclination
0.0131°
Eccentricity
0.0002695
Mean motion
1.00271610 rev/d
Perigee alt
35,775.3 km
Apogee alt
35,798.0 km
Semi-major
42,164.8 km
B*
0.0000e+0
RAAN
164.8224°
Arg perigee
17.5644°
Mean anomaly
42.3389°
Rev number
7,392

§ Raw data

GALAXY 16 (G-16)1 29236U 06023A   26262.90253008 -.00000131  00000+0  00000+0 0  99922 29236   0.0131 164.8224 0002695  17.5644  42.3389  1.00271610 73923

JSON: /api/v1/satellites/29236 · /tle

For live sub-satellite position, see the globe view (requires WebGL).

§ Visibility from observer

Set your observer location to see the next 7 days of passes ≥ 10°. The values pass through the URL so the page stays shareable.

No JS? Fill the form by hand. The geolocation button needs JavaScript.